Weather reports worldwide

Advertisment
Ramstein, Germany (10614): temperature & dewpoint: 12.10.2018 03:00:00 - 18.10.2018 03:00:00 (CEST)Ramstein, Germany (10614): wind speed: 12.10.2018 03:00:00 - 18.10.2018 03:00:00 (CEST)Ramstein, Germany (10614): wind direction: 12.10.2018 03:00:00 - 18.10.2018 03:00:00 (CEST)Ramstein, Germany (10614): reduced air pressure: 12.10.2018 03:00:00 - 18.10.2018 03:00:00 (CEST)Ramstein, Germany (10614): visibility: 12.10.2018 03:00:00 - 18.10.2018 03:00:00 (CEST)
Date & Time tt [°C] td [°C] ff [km/h] ff [kn] dd ppp [hPa] vv [km]
18.10.2018 03:00:00 7,0 7,0 0 0 N 1019,4 10
18.10.2018 02:00:00 8,0 8,0 0 0 N 1019,4 10
18.10.2018 01:00:00 7,0 7,0 0 0 N 1019,6 10
18.10.2018 00:00:00 8,0 8,0 0 0 N 1019,7 10
17.10.2018 23:00:00 8,4 8,4 0 0 N 1019,8 10
17.10.2018 22:00:00 9,2 9,2 5 3 E 1019,7 10
17.10.2018 21:00:00 9,5 9,5 0 0 N 1019,4 10
17.10.2018 20:00:00 12,3 12,3 0 0 N - 10
17.10.2018 19:00:00 14,5 14,5 0 0 N 1018,6 10
17.10.2018 18:00:00 19,5 19,3 8 4 ENE 1018,0 10
17.10.2018 17:00:00 22,1 21,9 11 6 NNE 1017,4 10
17.10.2018 16:00:00 22,7 22,3 8 4 ENE 1017,8 10
17.10.2018 15:00:00 22,5 22,3 0 0 N 1017,9 10
17.10.2018 14:00:00 21,2 21,2 0 0 N 1018,5 10
17.10.2018 13:00:00 19,3 19,3 0 0 N 1019,3 10
17.10.2018 12:00:00 16,7 16,7 0 0 N 1019,7 10
17.10.2018 11:00:00 13,4 13,4 0 0 N 1019,9 10
17.10.2018 10:00:00 10,0 8,0 0 0 N 1019,9 10
17.10.2018 09:00:00 8,0 6,0 0 0 N 1020,1 10
17.10.2018 08:00:00 4,0 4,0 0 0 N - 10
17.10.2018 07:00:00 3,0 3,0 0 0 N 1020,1 10
17.10.2018 06:00:00 4,0 4,0 0 0 N 1019,4 10
17.10.2018 05:00:00 4,0 4,0 0 0 N 1019,2 10
17.10.2018 04:00:00 6,0 6,0 0 0 N 1019,4 10
17.10.2018 03:00:00 4,0 4,0 0 0 N 1019,5 10
17.10.2018 02:00:00 5,0 5,0 0 0 N 1019,8 1,2
17.10.2018 01:00:00 6,0 6,0 0 0 N 1019,8 10
17.10.2018 00:00:00 6,2 6,2 0 0 N 1020,0 10
16.10.2018 23:00:00 6,9 6,9 0 0 N 1020,1 10
16.10.2018 22:00:00 9,4 9,4 0 0 N 1020,3 10
16.10.2018 21:00:00 9,2 9,2 0 0 N 1020,2 10
16.10.2018 20:00:00 9,8 9,8 0 0 N 1020,0 10
16.10.2018 19:00:00 12,2 12,2 0 0 N 1019,5 10
16.10.2018 18:00:00 18,1 17,9 0 0 N 1018,8 10
16.10.2018 17:00:00 22,6 21,7 9 5 NE 1018,5 10
16.10.2018 16:00:00 23,6 22,5 18 10 NE 1018,4 10
16.10.2018 15:00:00 23,7 22,8 21 11 NE 1018,4 10
16.10.2018 14:00:00 23,1 22,9 13 7 E 1018,4 10
16.10.2018 13:00:00 21,0 21,0 0 0 N 1018,9 10
16.10.2018 12:00:00 18,5 18,5 5 3 ESE 1019,2 10
16.10.2018 11:00:00 14,2 14,2 0 0 N 1019,4 10
16.10.2018 10:00:00 9,0 8,0 0 0 N 1019,7 10
16.10.2018 09:00:00 - - 0 0 N 1019,5 10
16.10.2018 08:00:00 3,0 3,0 5 3 E 1018,7 10
16.10.2018 07:00:00 3,0 3,0 0 0 N 1018,6 10
16.10.2018 06:00:00 3,0 3,0 0 0 N 1017,9 10
16.10.2018 05:00:00 4,0 4,0 0 0 N 1017,4 10
16.10.2018 04:00:00 4,0 4,0 0 0 N 1017,1 10
16.10.2018 03:00:00 4,0 4,0 0 0 N 1016,7 10
16.10.2018 02:00:00 5,0 5,0 0 0 N 1016,4 10
16.10.2018 01:00:00 5,9 5,9 0 0 N 1016,4 10
16.10.2018 00:00:00 6,6 6,6 0 0 N 1016,2 10
15.10.2018 23:00:00 7,2 7,2 0 0 N 1016,4 10
15.10.2018 22:00:00 9,2 9,2 0 0 N 1015,8 10
15.10.2018 21:00:00 9,6 9,6 0 0 N 1015,6 10
15.10.2018 20:00:00 12,9 12,9 0 0 N 1015,2 10
15.10.2018 19:00:00 15,7 15,7 5 3 E 1014,7 10
15.10.2018 18:00:00 22,2 21,0 13 7 ENE 1013,7 10
15.10.2018 17:00:00 23,9 22,8 13 7 ENE 1013,2 10
15.10.2018 16:00:00 24,2 23,5 9 5 NNE 1013,1 10
15.10.2018 15:00:00 23,9 23,4 16 9 N 1013,0 10
15.10.2018 14:00:00 23,3 23,1 11 6 NNE 1013,5 10
15.10.2018 13:00:00 21,5 21,5 0 0 N 1014,2 10
15.10.2018 12:00:00 18,5 18,5 0 0 N 1014,4 10
15.10.2018 11:00:00 14,8 14,8 0 0 N 1014,8 10
15.10.2018 10:00:00 11,0 10,0 0 0 N 1015,0 10
15.10.2018 09:00:00 7,0 7,0 0 0 N 1014,8 10
15.10.2018 08:00:00 5,0 5,0 0 0 N 1014,0 10
15.10.2018 07:00:00 6,0 6,0 0 0 N 1013,3 10
15.10.2018 06:00:00 6,0 6,0 0 0 N 1012,9 10
15.10.2018 05:00:00 6,0 6,0 0 0 N 1012,5 10
15.10.2018 04:00:00 7,0 7,0 0 0 N 1012,5 10
15.10.2018 03:00:00 9,0 9,0 0 0 N 1012,0 10
15.10.2018 02:00:00 9,0 9,0 0 0 N 1012,0 10
15.10.2018 01:00:00 10,0 10,0 0 0 N 1012,0 6
15.10.2018 00:00:00 9,1 9,1 0 0 N 1011,9 10
14.10.2018 23:00:00 10,2 10,2 0 0 N 1012,1 10
14.10.2018 22:00:00 10,7 10,7 0 0 N 1011,6 10
14.10.2018 21:00:00 13,8 13,8 0 0 N 1011,3 10
14.10.2018 20:00:00 17,4 17,4 0 0 N 1011,3 10
14.10.2018 19:00:00 16,9 16,9 5 3 E 1010,9 10
14.10.2018 18:00:00 23,9 23,7 8 4 ESE 1010,6 10
14.10.2018 17:00:00 25,6 25,4 9 5 SE 1010,4 10
14.10.2018 16:00:00 25,7 25,5 8 4 ESE 1010,4 10
14.10.2018 15:00:00 25,4 25,2 11 6 E 1010,4 10
14.10.2018 14:00:00 24,6 24,6 11 6 ENE 1011,1 10
14.10.2018 13:00:00 23,2 23,2 11 6 E 1012,2 10
14.10.2018 12:00:00 20,2 20,2 0 0 N 1012,9 10
14.10.2018 11:00:00 16,4 16,4 0 0 N 1013,4 10
14.10.2018 10:00:00 11,0 9,0 0 0 N 1013,9 10
14.10.2018 09:00:00 8,0 6,0 0 0 N 1014,1 10
14.10.2018 08:00:00 5,0 5,0 0 0 N 1014,1 9
14.10.2018 07:00:00 4,0 4,0 0 0 N 1014,3 10
14.10.2018 06:00:00 5,0 5,0 0 0 N 1014,4 10
14.10.2018 05:00:00 6,0 6,0 0 0 N 1014,5 9
14.10.2018 04:00:00 7,0 7,0 0 0 N 1014,7 10
14.10.2018 03:00:00 7,0 7,0 0 0 N 1015,2 10
14.10.2018 02:00:00 7,2 7,2 0 0 N 1015,2 10
14.10.2018 01:00:00 7,3 7,3 0 0 N 1015,6 10
14.10.2018 00:00:00 10,0 10,0 0 0 N 1015,6 10
13.10.2018 23:00:00 10,5 10,5 0 0 N 1016,4 10
13.10.2018 22:00:00 12,8 12,8 0 0 N 1016,5 10
13.10.2018 21:00:00 11,8 11,8 0 0 N 1017,0 10
13.10.2018 20:00:00 14,0 14,0 0 0 N 1017,4 10
13.10.2018 19:00:00 17,5 17,5 0 0 N 1017,3 10
13.10.2018 18:00:00 23,8 23,4 9 5 E 1016,9 10
13.10.2018 17:00:00 26,2 25,8 8 4 E 1017,1 10
13.10.2018 16:00:00 26,1 26,1 0 0 N 1017,7 10
13.10.2018 15:00:00 25,6 25,6 5 3 NNW 1018,8 10
13.10.2018 14:00:00 24,5 24,5 5 3 NNW 1019,8 10
13.10.2018 13:00:00 23,1 23,1 5 3 N 1020,9 10
13.10.2018 12:00:00 20,7 20,7 0 0 N 1021,6 10
13.10.2018 11:00:00 17,0 17,0 0 0 N 1022,1 10
13.10.2018 10:00:00 13,0 9,0 0 0 N 1022,9 10
13.10.2018 09:00:00 10,0 9,0 0 0 N 1023,1 10
13.10.2018 08:00:00 8,0 8,0 0 0 N 1023,1 10
13.10.2018 07:00:00 7,0 7,0 5 3 E 1022,6 10
13.10.2018 06:00:00 8,0 8,0 0 0 N 1022,8 9
13.10.2018 05:00:00 8,0 8,0 0 0 N 1022,7 10
13.10.2018 04:00:00 8,0 8,0 0 0 N 1022,7 10
13.10.2018 03:00:00 8,0 8,0 0 0 N 1022,7 10
13.10.2018 02:00:00 10,0 10,0 0 0 N 1022,6 10
13.10.2018 01:00:00 10,4 10,4 0 0 N 1022,6 10
13.10.2018 00:00:00 11,7 11,7 0 0 N 1022,9 3,2
12.10.2018 23:00:00 13,0 13,0 0 0 N 1022,9 10
12.10.2018 22:00:00 14,7 14,7 0 0 N 1023,1 10
12.10.2018 21:00:00 13,6 13,6 5 3 E 1023,0 10
12.10.2018 20:00:00 16,9 16,9 0 0 N 1023,0 10
12.10.2018 19:00:00 19,7 19,7 0 0 N 1022,1 10
12.10.2018 18:00:00 21,8 21,8 0 0 N 1022,0 10
12.10.2018 17:00:00 23,7 23,7 8 4 SSE 1021,6 10
12.10.2018 16:00:00 24,8 24,8 0 0 N 1021,4 10
12.10.2018 15:00:00 24,5 24,5 11 6 S 1021,1 10
12.10.2018 14:00:00 24,0 24,0 11 6 S 1021,5 10
12.10.2018 13:00:00 23,2 23,2 9 5 S 1021,9 10
12.10.2018 12:00:00 22,2 22,2 11 6 WSW 1022,2 10
12.10.2018 11:00:00 20,9 20,9 11 6 WSW 1021,8 10
12.10.2018 10:00:00 15,0 15,0 0 0 N 1021,7 10
12.10.2018 09:00:00 - - 0 0 N 1021,7 10
12.10.2018 08:00:00 10,0 10,0 0 0 N 1021,4 10
12.10.2018 07:00:00 10,0 10,0 0 0 N 1020,1 10
12.10.2018 06:00:00 9,0 9,0 0 0 N 1019,4 8
12.10.2018 05:00:00 8,0 8,0 5 3 E 1018,6 2,2
12.10.2018 04:00:00 10,0 10,0 0 0 N 1018,2 10
12.10.2018 03:00:00 10,0 10,0 0 0 N 1018,0 10

tt = temperature
td = dewpoint
ff = wind speed
dd = wind direction
ppp = reduced air pressure
vv = visibility

Next stations